Weather History for Bradford, PA

Change the Weather History Date:

Thursday, June 13, 2013

  Actual Average Record
Temperature  
Mean Temperature 60 °F 61 °F  
Max Temperature 66 °F 73 °F 86 °F (1967)
Min Temperature 54 °F 49 °F 30 °F (1979)
Degree Days  
Heating Degree Days 6 2  
Month to date heating degree days 39  
Since 1 June heating degree days 39  
Since 1 July heating degree days 7667  
Cooling Degree Days 0 1  
Month to date cooling degree days 13  
Year to date cooling degree days 23  
Since 1 June cooling degree days 13  
Growing Degree Days 10 (Base 50)    
Moisture  
Dew Point 58 °F    
Average Humidity 88    
Maximum Humidity 94    
Minimum Humidity 80    
Precipitation  
Precipitation 0.79 in 0.17 in 2.02 in (1994)
Month to date precipitation 2.15  
Year to date precipitation 18.89  
Sea Level Pressure  
Sea Level Pressure 29.60 in    
Wind  
Wind Speed 9 mph (WNW)    
Max Wind Speed 22 mph    
Max Gust Speed 28 mph    
Visibility 6 miles    
Events Rain    
T = Trace of Precipitation, MM = Missing Value Source: NWS Daily Summary

Daily Weather History Graph

Daily Weather History Graph

Search for Another Location

Airport:

Trip Planner

Search our weather history database for the weather conditions in past years. The results will help you decide how hot, cold, wet, or windy it might be!

Date:

Astronomy

Jun. 13, 2013 Rise Set
Actual Time 5:39 AM EDT 8:50 PM EDT
Civil Twilight 5:04 AM EDT 9:24 PM EDT
Nautical Twilight 4:20 AM EDT 10:08 PM EDT
Astronomical Twilight 3:28 AM EDT 11:01 PM EDT
Moon 10:17 AM EDT (6/13) 11:52 PM EDT (6/13)
Length of Visible Light 16h 19m
Length of Day
15h 11m
Waxing Crescent, 21% of the Moon is Illuminated
Jun 13
Waxing Crescent
Jun 16
First Quarter
Jun 23
Full
Jun 30
Last Quarter
Jul 8
New

Hourly Weather History & Observations

Time (EDT) Temp. Dew Point Humidity Pressure Visibility Wind Dir Wind Speed Gust Speed Precip Events Conditions
12:53 AM 62.1 °F 57.9 °F 86% 29.78 in 10.0 mi SSE 4.6 mph - 0.00 in   Overcast
1:53 AM 61.0 °F 59.0 °F 93% 29.74 in 5.0 mi East 4.6 mph - 0.00 in Rain Light Rain
2:53 AM 61.0 °F 59.0 °F 93% 29.69 in 4.0 mi ESE 5.8 mph - 0.08 in Rain Light Rain
3:53 AM 62.1 °F 59.0 °F 90% 29.65 in 3.0 mi SE 5.8 mph - 0.05 in Rain Rain
4:24 AM 62.1 °F 60.1 °F 93% 29.68 in 3.0 mi SE 5.8 mph - 0.04 in Rain Light Rain
4:43 AM 63.0 °F 60.1 °F 90% 29.66 in 4.0 mi SE 6.9 mph - 0.06 in Rain Light Rain
4:53 AM 63.0 °F 60.1 °F 90% 29.60 in 4.0 mi SSE 9.2 mph - 0.07 in Rain Light Rain
5:07 AM 63.0 °F 60.1 °F 90% 29.67 in 3.0 mi NNW 6.9 mph - 0.02 in Rain Rain
5:16 AM 63.0 °F 60.1 °F 90% 29.66 in 2.0 mi Calm Calm - 0.07 in Rain Heavy Rain
5:24 AM 63.0 °F 60.1 °F 90% 29.65 in 2.5 mi SE 5.8 mph - 0.09 in Rain Rain
5:33 AM 63.0 °F 60.1 °F 90% 29.65 in 1.8 mi SE 5.8 mph - 0.16 in Rain Heavy Rain
5:49 AM 62.6 °F 60.8 °F 94% 29.64 in 1.5 mi SSE 5.8 mph - 0.29 in Rain Heavy Rain
5:53 AM 63.0 °F 60.1 °F 90% 29.60 in 1.5 mi SSE 5.8 mph - 0.32 in Rain Heavy Rain
6:02 AM 63.0 °F 60.1 °F 90% 29.63 in 2.0 mi SSE 11.5 mph 17.3 mph 0.06 in Rain Heavy Rain
6:12 AM 63.0 °F 60.1 °F 90% 29.60 in 4.0 mi SSE 10.4 mph 19.6 mph 0.08 in Rain Rain
6:24 AM 63.0 °F 60.1 °F 90% 29.58 in 4.0 mi SE 6.9 mph - 0.10 in Rain Light Rain
6:38 AM 63.0 °F 61.0 °F 93% 29.58 in 7.0 mi SSE 9.2 mph - 0.10 in   Overcast
6:53 AM 64.0 °F 61.0 °F 90% 29.52 in 6.0 mi SSE 12.7 mph 19.6 mph 0.10 in   Overcast
7:53 AM 64.0 °F 61.0 °F 90% 29.52 in 8.0 mi SSE 6.9 mph 18.4 mph N/A   Overcast
8:17 AM 64.0 °F 61.0 °F 90% 29.54 in 10.0 mi South 9.2 mph - N/A   Overcast
8:53 AM 64.9 °F 60.1 °F 84% 29.50 in 10.0 mi South 9.2 mph - N/A   Overcast
9:22 AM 64.0 °F 60.1 °F 87% 29.53 in 4.0 mi Variable 6.9 mph - 0.01 in Rain Rain
9:37 AM 64.0 °F 60.1 °F 87% 29.52 in 2.5 mi South 6.9 mph - 0.03 in Rain Rain
9:53 AM 63.0 °F 61.0 °F 93% 29.48 in 1.8 mi Variable 6.9 mph - 0.06 in Rain Rain
10:00 AM 63.0 °F 61.0 °F 93% 29.51 in 1.2 mi SSE 4.6 mph - 0.02 in Rain Rain
10:21 AM 63.0 °F 60.1 °F 90% 29.50 in 1.5 mi SSE 3.5 mph - 0.06 in Rain Rain
10:50 AM 62.6 °F 60.8 °F 94% 29.49 in 2.5 mi SSW 5.8 mph - 0.09 in Rain Light Rain
10:53 AM 64.0 °F 61.0 °F 90% 29.45 in 2.5 mi Variable 6.9 mph - 0.10 in Rain Light Rain
11:09 AM 63.0 °F 60.1 °F 90% 29.49 in 4.0 mi Variable 6.9 mph - 0.00 in Rain Light Rain
11:21 AM 64.0 °F 61.0 °F 90% 29.49 in 2.5 mi Variable 5.8 mph - 0.00 in Rain Light Rain
11:30 AM 64.0 °F 61.0 °F 90% 29.49 in 5.0 mi West 11.5 mph 17.3 mph 0.00 in Rain Light Rain
11:53 AM 64.9 °F 61.0 °F 87% 29.46 in 6.0 mi WNW 15.0 mph 21.9 mph 0.00 in   Overcast
12:39 PM 64.9 °F 61.0 °F 87% 29.50 in 10.0 mi WNW 9.2 mph - 0.00 in Rain Light Rain
12:53 PM 64.9 °F 61.0 °F 87% 29.47 in 8.0 mi WNW 12.7 mph 20.7 mph 0.00 in Rain Light Rain
1:05 PM 64.0 °F 61.0 °F 90% 29.51 in 4.0 mi WNW 18.4 mph 23.0 mph 0.00 in Rain Light Rain
1:34 PM 62.1 °F 60.1 °F 93% 29.52 in 3.0 mi West 13.8 mph 21.9 mph 0.00 in Rain Light Rain
1:42 PM 62.1 °F 59.0 °F 90% 29.53 in 2.0 mi WNW 15.0 mph 21.9 mph 0.01 in Rain Light Rain
1:48 PM 62.6 °F 59.0 °F 88% 29.54 in 3.0 mi WNW 15.0 mph 21.9 mph 0.01 in Rain Light Rain
2:33 PM 61.0 °F 57.9 °F 90% 29.56 in 3.0 mi NW 17.3 mph 21.9 mph 0.00 in Rain Light Rain
2:53 PM 61.0 °F 57.0 °F 87% 29.55 in 6.0 mi NW 17.3 mph 27.6 mph 0.00 in   Overcast
3:53 PM 61.0 °F 57.0 °F 87% 29.57 in 10.0 mi NNW 18.4 mph 25.3 mph 0.00 in Rain Light Rain
3:59 PM 61.0 °F 55.9 °F 83% 29.60 in 10.0 mi NNW 16.1 mph 25.3 mph 0.00 in Rain Light Rain
4:36 PM 61.0 °F 55.9 °F 83% 29.62 in 10.0 mi NNW 17.3 mph 23.0 mph 0.00 in   Overcast
4:45 PM 60.1 °F 55.0 °F 83% 29.63 in 10.0 mi NW 19.6 mph 25.3 mph 0.00 in   Overcast
4:53 PM 59.0 °F 55.0 °F 87% 29.60 in 10.0 mi NW 15.0 mph 24.2 mph 0.00 in   Overcast
5:02 PM 57.9 °F 55.0 °F 90% 29.64 in 10.0 mi NW 21.9 mph 26.5 mph N/A   Overcast
5:53 PM 57.9 °F 54.0 °F 87% 29.62 in 5.0 mi NNW 15.0 mph 23.0 mph 0.00 in   Overcast
6:53 PM 57.0 °F 53.1 °F 87% 29.65 in 9.0 mi NNW 10.4 mph - 0.01 in   Overcast
7:24 PM 57.0 °F 53.1 °F 87% 29.70 in 10.0 mi North 15.0 mph 23.0 mph N/A   Overcast
7:53 PM 57.0 °F 52.0 °F 83% 29.70 in 10.0 mi North 12.7 mph - N/A   Overcast
7:57 PM 57.0 °F 52.0 °F 83% 29.72 in 10.0 mi North 12.7 mph 19.6 mph N/A   Overcast
8:27 PM 55.9 °F 52.0 °F 87% 29.73 in 10.0 mi North 9.2 mph - N/A   Overcast
8:41 PM 55.9 °F 51.1 °F 84% 29.74 in 10.0 mi North 13.8 mph - N/A   Overcast
8:53 PM 55.9 °F 51.1 °F 84% 29.72 in 10.0 mi North 15.0 mph - N/A   Overcast
9:10 PM 55.9 °F 51.1 °F 84% 29.75 in 10.0 mi North 11.5 mph - N/A   Overcast
9:53 PM 55.9 °F 50.0 °F 80% 29.75 in 10.0 mi North 13.8 mph 21.9 mph N/A   Overcast
10:53 PM 55.0 °F 50.0 °F 83% 29.76 in 10.0 mi North 10.4 mph - N/A   Overcast
11:53 PM 54.0 °F 50.0 °F 86% 29.78 in 10.0 mi North 10.4 mph - N/A   Mostly Cloudy